DW9665 Sarajevo BA current weather conditions

sailwx.info

Wind from 180 at 0 knots gusting 0

Air temperature 1.1° C
Dewpoint -2.6° C

Last reported at 2014-Nov-22 22:47 UTC.
Time now 2014-Nov-22 23:46 UTC

Location: N 43°50' E 018°21'.
View on Google Maps.

See reports from other nearby stations

  
Tides and Currents Weather Stations Pressure Air Temp Water Temp Dewpoint Dewpoint Depression Visibility Wind Speed Wind Dir Waves Ship Positions
date/time (UTC)wind fromknots sea level pressurealtimeterstation pressurevisibilityair tempwater tempwave heightnotes
2014-Nov-22 22:47 180 0 gusting 0 1.1
2014-Nov-22 22:32 158 1.1
2014-Nov-22 22:17 180 0 gusting 2 1.7
2014-Nov-22 22:02 180 1 gusting 1 1.7
2014-Nov-22 21:47 180 1.7
2014-Nov-22 21:32 180 1.7
2014-Nov-22 21:17 158 2.2
2014-Nov-22 21:02 180 2.2
2014-Nov-22 20:47 180 2.2
2014-Nov-22 20:32 180 2.8
2014-Nov-22 20:17 180 2.8
2014-Nov-22 20:02 112 2.8
2014-Nov-22 19:47 135 2.8
2014-Nov-22 19:32 180 2.8
2014-Nov-22 19:17 180 3.3
2014-Nov-22 19:02 180 3.3
2014-Nov-22 18:47 270 3.3
2014-Nov-22 18:32 270 3.9
2014-Nov-22 18:17 270 3.9
2014-Nov-22 18:02 270 3.9
2014-Nov-22 17:47 270 4.4
2014-Nov-22 17:32 292 4.4
2014-Nov-22 17:17 292 5.0
2014-Nov-22 17:02 180 5.6
2014-Nov-22 16:47 180 5.6
2014-Nov-22 16:32 180 6.1
2014-Nov-22 16:17 180 6.1
2014-Nov-22 16:02 158 6.7
2014-Nov-22 15:47 158 0 6.7
2014-Nov-22 15:32 158 6.7
2014-Nov-22 15:17 158 7.2
2014-Nov-22 15:02 180 7.8
2014-Nov-22 14:47 180 8.3
2014-Nov-22 14:32 270 8.9
2014-Nov-22 14:17 315 0 gusting 3 9.4
2014-Nov-22 14:02 270 10.0
2014-Nov-22 13:47 090 9.4
2014-Nov-22 13:32 180 9.4
2014-Nov-22 13:17 158 8.9
2014-Nov-22 13:02 180 8.3
2014-Nov-22 12:47 270 7.8
2014-Nov-22 12:32 270 7.8
2014-Nov-22 12:17 270 1 gusting 3 7.2
2014-Nov-22 12:02 292 0 gusting 2 7.2
2014-Nov-22 11:47 338 0 gusting 3 6.1
2014-Nov-22 11:32 338 5.6
2014-Nov-22 11:17 270 4.4
2014-Nov-22 11:02 180 3.9
2014-Nov-22 10:47 292 0 gusting 2 3.3
2014-Nov-22 10:32 270 1 gusting 4 2.8
2014-Nov-22 10:17 292 1 gusting 2 2.8
2014-Nov-22 10:02 292 2.2
2014-Nov-22 09:47 135 1.7
2014-Nov-22 09:32 338 1.1
2014-Nov-22 09:17 158 0 gusting 2 0.6
2014-Nov-22 09:02 112 0.6
2014-Nov-22 08:47 270 0 gusting 2 0.6
2014-Nov-22 08:32 158 0 gusting 2 0.6
2014-Nov-22 08:17 158 1 gusting 1 0.6
2014-Nov-22 08:02 112 1 gusting 0 -0.0
2014-Nov-22 07:47 180 -0.0
2014-Nov-22 07:32 158 -0.0
2014-Nov-22 07:17 112 -0.6
2014-Nov-22 07:02 180 -0.0
2014-Nov-22 06:47 292 0 gusting 2 -0.6
2014-Nov-22 06:32 270 0 gusting 3 -0.6
2014-Nov-22 06:17 270 -0.6
2014-Nov-22 06:02 180 -0.6
2014-Nov-22 05:47 270 -0.0
2014-Nov-22 05:32 180 -0.0
2014-Nov-22 05:17 068 -0.0
2014-Nov-22 05:02 180 -0.0
2014-Nov-22 04:47 135 -0.0
2014-Nov-22 04:32 135 -0.0
2014-Nov-22 04:17 292 0.6
2014-Nov-22 04:02 292 0.6
2014-Nov-22 03:47 292 0.6
2014-Nov-22 03:32 270 0 gusting 2 0.6
2014-Nov-22 03:17 180 1.1
2014-Nov-22 03:02 180 1.1
2014-Nov-22 02:47 180 1.1
2014-Nov-22 02:32 180 1.1
2014-Nov-22 02:02 158 0 gusting 2 1.1
2014-Nov-22 01:47 135 1.7
2014-Nov-22 01:32 180 1.7
2014-Nov-22 01:17 270 0 gusting 2 1.7
2014-Nov-22 01:02 270 1 gusting 2 1.7
2014-Nov-22 00:47 180 2.2
2014-Nov-22 00:32 180 2.2
2014-Nov-22 00:17 180 2.2
2014-Nov-22 00:02 180 2.2
2014-Nov-21 23:47 135 2.2
2014-Nov-21 23:32 135 2.8
2014-Nov-21 23:17 270 2.8
2014-Nov-21 23:02 270 2.8
2014-Nov-21 22:47 180 2.8
2014-Nov-21 22:32 270 3.3
2014-Nov-21 22:17 270 3.3
2014-Nov-21 22:02 180 3.3
2014-Nov-21 21:47 180 3.9
2014-Nov-21 21:32 270 0 gusting 3 4.4
2014-Nov-21 21:17 270 5.0
2014-Nov-21 21:02 180 5.0
2014-Nov-21 20:47 180 5.0
2014-Nov-21 20:32 180 5.0
2014-Nov-21 20:17 180 5.6
2014-Nov-21 20:02 180 5.6
2014-Nov-21 19:47 135 5.6
2014-Nov-21 19:32 158 5.6
2014-Nov-21 19:17 180 0 gusting 2 5.6
2014-Nov-21 19:02 158 5.6
2014-Nov-21 18:47 022 6.1
2014-Nov-21 18:32 292 6.1
2014-Nov-21 18:17 292 6.1
2014-Nov-21 18:02 292 6.7
2014-Nov-21 17:47 292 0 gusting 1 6.7
2014-Nov-21 17:32 158 6.7
2014-Nov-21 17:17 112 6.7
2014-Nov-21 17:02 180 7.2
2014-Nov-21 16:47 158 7.2
2014-Nov-21 16:32 158 7.2
2014-Nov-21 16:17 7.2
2014-Nov-21 16:02 338 7.2
2014-Nov-21 15:47 022 7.8
2014-Nov-21 15:32 338 7.8
2014-Nov-21 15:17 045 7.8
2014-Nov-21 15:02 270 7.8
2014-Nov-21 14:47 180 7.8
2014-Nov-21 14:32 292 1 gusting 2 7.8
2014-Nov-21 14:17 270 2 gusting 4 7.8
2014-Nov-21 14:02 292 2 gusting 5 7.8
2014-Nov-21 13:47 045 0 gusting 3 8.3
2014-Nov-21 13:32 270 2 gusting 3 8.3
2014-Nov-21 13:17 112 8.9
2014-Nov-21 13:02 112 8.3
2014-Nov-21 12:47 158 2 gusting 3 8.3
2014-Nov-21 12:32 135 8.3
2014-Nov-21 12:17 135 8.3
2014-Nov-21 12:02 180 8.3
2014-Nov-21 11:47 292 7.8
2014-Nov-21 11:32 338 0 gusting 2 7.2
2014-Nov-21 11:17 180 7.2
2014-Nov-21 11:02 292 0 gusting 3 6.7
2014-Nov-21 10:47 180 6.7
2014-Nov-21 10:32 270 6.7
2014-Nov-21 10:17 158 6.1
2014-Nov-21 10:02 292 0 gusting 2 5.6
2014-Nov-21 09:47 292 5.6
2014-Nov-21 09:32 180 5.6
2014-Nov-21 09:17 292 0 gusting 1 5.6
2014-Nov-21 09:02 270 5.6
2014-Nov-21 08:47 270 5.0
2014-Nov-21 08:32 315 1 gusting 2 5.0
2014-Nov-21 08:17 270 0 gusting 3 5.0
2014-Nov-21 08:02 180 2 gusting 3 4.4
2014-Nov-21 07:47 270 3 gusting 4 4.4
2014-Nov-21 07:32 270 0 gusting 2 5.0
2014-Nov-21 07:17 180 4.4
2014-Nov-21 07:02 270 0 gusting 2 3.9
2014-Nov-21 06:47 270 3.9
2014-Nov-21 06:32 180 3.9
2014-Nov-21 06:17 180 3.3
2014-Nov-21 06:02 270 3.3
2014-Nov-21 05:47 315 3.3
2014-Nov-21 05:32 180 3.3
2014-Nov-21 05:17 270 0 gusting 0 3.3
2014-Nov-21 05:02 022 3.3
2014-Nov-21 04:47 270 3.3
2014-Nov-21 04:32 292 1 gusting 3 3.3
2014-Nov-21 04:17 338 3.3
2014-Nov-21 04:02 180 3.3
2014-Nov-21 03:47 270 3.3
2014-Nov-21 03:32 135 3.3
2014-Nov-21 03:17 180 3.3
2014-Nov-21 03:02 270 3.3
2014-Nov-21 02:47 180 3.3
2014-Nov-21 02:32 180 3.3
2014-Nov-21 02:17 180 3.3
2014-Nov-21 02:02 270 3.3
2014-Nov-21 01:47 112 3.3
2014-Nov-21 01:32 180 2.8
2014-Nov-21 01:17 180 2.8
2014-Nov-21 01:02 270 2.8
2014-Nov-21 00:47 270 0 gusting 2 2.8
2014-Nov-21 00:32 180 3.3
2014-Nov-21 00:17 180 2.8
2014-Nov-21 00:02 180 3.3
2014-Nov-20 23:47 270 2.8
2014-Nov-20 23:32 112 2.8
2014-Nov-20 23:17 068 2.8
2014-Nov-20 23:02 180 3.3